DW5533 Weather Reports


time (UTC)temp
F
wind
direction
speed
knots
gust
knots
rain 1hr
in
rain 24hr
in
rain mn
in
humidity
%
barometer
mb
20260504174537 52 37 0.0 0.0 0.00 0.02 0.01 87 1005.9
20260504173038 51 37 0.0 0.0 0.00 0.02 0.01 87 1006.1
20260504171539 49 37 0.0 0.0 0.00 0.02 0.01 93 1006.0
20260504081528 37 119 0.0 0.0 0.00 0.01 0.00 77 1007.2
20260504060104 34 77 0.0 0.0 0.00 0.01 0.00 89 1007.2
20260504044548 33 59 0.0 0.0 0.00 0.01 0.00 87 1007.3
20260504043049 33 59 0.0 0.0 0.00 0.01 0.00 86 1007.3
20260504041544 34 59 0.0 0.0 0.00 0.01 0.00 87 1007.4
20260504040041 34 59 0.0 0.0 0.00 0.01 0.00 86 1007.3
20260504034552 34 59 0.0 0.0 0.00 0.01 0.01 86 1007.3
20260504033051 34 59 0.0 0.0 0.00 0.01 0.01 86 1007.3
20260504031549 34 59 0.0 0.0 0.00 0.01 0.01 86 1007.4
20260504030049 34 59 0.0 0.0 0.00 0.01 0.01 85 1007.3
20260504024544 34 59 0.0 0.0 0.00 0.01 0.01 86 1007.3
20260504023038 34 59 0.0 0.0 0.00 0.01 0.01 87 1007.3
20260504021537 34 59 0.0 0.0 0.00 0.01 0.01 88 1007.5
20260504020036 34 59 0.0 0.0 0.00 0.01 0.01 88 1007.6
20260504014538 35 59 0.0 0.0 0.00 0.01 0.01 87 1007.5
20260504013038 35 59 0.0 0.0 0.00 0.01 0.01 87 1007.4
20260504011531 36 59 0.0 0.0 0.00 0.01 0.01 86 1007.2
20260504010029 37 59 0.0 0.0 0.00 0.01 0.01 84 1007.3
20260504004528 38 59 0.0 0.0 0.00 0.01 0.01 82 1007.1
20260504003039 39 59 0.0 0.0 0.00 0.01 0.01 80 1006.9
20260504001527 40 59 0.0 0.0 0.00 0.01 0.01 75 1006.8
20260504000027 42 59 0.0 0.0 0.00 0.01 0.01 71 1006.7
20260503234528 43 59 0.0 0.0 0.00 0.01 0.01 70 1006.7
20260503233035 43 59 0.0 0.0 0.00 0.01 0.01 67 1006.6
20260503231526 44 59 0.0 0.0 0.00 0.01 0.01 64 1006.6
20260503230025 44 59 0.0 0.0 0.00 0.01 0.01 64 1006.6
20260503224528 44 59 0.0 0.0 0.00 0.01 0.01 62 1006.5
20260503223023 44 57 0.0 0.9 0.00 0.01 0.01 65 1006.5
20260503221522 44 150 0.0 0.0 0.00 0.01 0.01 64 1006.5
20260503220023 43 131 0.0 2.6 0.00 0.01 0.01 64 1006.4
20260503214520 43 123 0.0 2.6 0.00 0.01 0.01 64 1006.4
20260503213020 43 355 0.0 0.0 0.00 0.01 0.01 68 1006.4
20260503211519 44 279 0.0 2.6 0.00 0.01 0.01 65 1006.5
20260503210020 43 80 0.0 0.9 0.00 0.01 0.01 67 1006.3
20260503204519 43 94 0.0 2.6 0.00 0.01 0.01 67 1006.4
20260503203019 43 345 0.0 0.9 0.00 0.01 0.01 67 1006.3
20260503201518 43 275 0.0 4.3 0.00 0.01 0.01 66 1006.5
20260503200017 44 269 0.0 3.5 0.00 0.01 0.01 60 1006.1
20260503194517 44 82 0.9 6.1 0.01 0.01 0.01 60 1006.3
20260503193015 44 301 0.0 4.3 0.01 0.01 0.01 61 1006.3
20260503191513 44 290 0.0 3.5 0.01 0.01 0.01 59 1006.3
20260503190013 44 218 0.0 5.2 0.01 0.01 0.01 63 1006.4
20260503184517 43 5 0.0 3.5 0.00 0.00 0.00 66 1006.3
20260503183011 44 346 0.0 7.0 0.00 0.00 0.00 65 1006.4
20260503181508 44 132 0.0 5.2 0.00 0.00 0.00 63 1006.2
20260503180006 43 101 0.0 0.0 0.00 0.00 0.00 70 1006.3